Time,TemperatureF,DewpointF,PressureIn,WindDirection,WindDirectionDegrees,WindSpeedMPH,WindSpeedGustMPH,Humidity,HourlyPrecipIn,Conditions,Clouds,dailyrainin,SolarRadiationWatts/m^2,SoftwareType,DateUTC
2013-04-15 00:00:00,53.8,50.6,29.99,East,91,0.0,0.0,89,0.00,,,0.01,0,Wunderground v.1.15,2013-04-15 04:00:00,
2013-04-15 00:01:00,53.8,50.6,29.99,East,91,0.0,0.0,89,0.00,,,0.00,0,Wunderground v.1.15,2013-04-15 04:01:00,
2013-04-15 00:02:00,53.9,50.7,29.99,East,91,0.0,0.0,89,0.00,,,0.00,0,Wunderground v.1.15,2013-04-15 04:02:00,
2013-04-15 00:07:00,53.9,50.7,29.99,East,91,0.0,0.0,89,0.00,,,0.00,0,Wunderground v.1.15,2013-04-15 04:07:00,
2013-04-15 00:08:00,53.9,50.7,29.99,East,91,0.0,0.0,89,0.00,,,0.00,0,Wunderground v.1.15,2013-04-15 04:08:00,
2013-04-15 00:13:00,53.9,50.7,30.00,East,91,0.0,0.0,89,0.00,,,0.00,0,Wunderground v.1.15,2013-04-15 04:13:00,
2013-04-15 00:19:00,53.9,50.7,30.00,East,91,0.0,0.0,89,0.00,,,0.00,0,Wunderground v.1.15,2013-04-15 04:19:00,
2013-04-15 00:25:00,53.8,50.6,30.00,East,91,0.0,0.0,89,0.00,,,0.00,0,Wunderground v.1.15,2013-04-15 04:25:00,
2013-04-15 00:31:00,53.7,50.8,30.00,East,91,0.0,0.0,90,0.00,,,0.00,0,Wunderground v.1.15,2013-04-15 04:31:00,
2013-04-15 00:37:00,53.7,50.8,30.00,East,91,0.0,0.0,90,0.00,,,0.00,0,Wunderground v.1.15,2013-04-15 04:37:00,
2013-04-15 00:43:00,53.6,50.7,29.99,East,91,0.0,0.0,90,0.00,,,0.00,0,Wunderground v.1.15,2013-04-15 04:43:00,
2013-04-15 00:49:00,53.6,51.0,30.00,East,91,0.0,0.0,91,0.00,,,0.00,0,Wunderground v.1.15,2013-04-15 04:49:00,
2013-04-15 00:55:00,53.5,50.9,30.00,East,91,0.0,0.0,91,0.00,,,0.00,0,Wunderground v.1.15,2013-04-15 04:55:00,
2013-04-15 01:00:00,53.4,51.1,30.00,East,91,0.0,0.0,92,0.00,,,0.00,0,Wunderground v.1.15,2013-04-15 05:00:00,
2013-04-15 01:06:00,53.3,50.7,30.00,East,91,0.0,0.0,91,0.00,,,0.00,0,Wunderground v.1.15,2013-04-15 05:06:00,
2013-04-15 01:12:00,53.2,50.9,30.00,East,91,0.0,0.0,92,0.00,,,0.00,0,Wunderground v.1.15,2013-04-15 05:12:00,
2013-04-15 01:18:00,53.3,51.0,30.00,ESE,102,1.0,1.0,92,0.00,,,0.00,0,Wunderground v.1.15,2013-04-15 05:18:00,
2013-04-15 01:24:00,53.5,50.9,30.00,SSE,153,0.0,1.0,91,0.00,,,0.00,0,Wunderground v.1.15,2013-04-15 05:24:00,
2013-04-15 01:30:00,54.0,51.4,30.00,SSE,153,4.0,4.0,91,0.00,,,0.00,0,Wunderground v.1.15,2013-04-15 05:30:00,
2013-04-15 01:36:00,54.4,51.5,30.00,SE,130,5.0,5.0,90,0.00,,,0.00,0,Wunderground v.1.15,2013-04-15 05:36:00,
2013-04-15 01:42:00,54.8,51.6,30.00,SE,124,5.0,8.0,89,0.00,,,0.00,0,Wunderground v.1.15,2013-04-15 05:42:00,
2013-04-15 01:48:00,54.9,51.7,29.99,ESE,117,1.0,8.0,89,0.00,,,0.00,0,Wunderground v.1.15,2013-04-15 05:48:00,
2013-04-15 01:53:00,55.0,51.8,30.00,ESE,120,6.0,7.0,89,0.00,,,0.00,0,Wunderground v.1.15,2013-04-15 05:53:00,
2013-04-15 01:59:00,55.0,51.8,30.00,ESE,119,1.0,7.0,89,0.00,,,0.00,0,Wunderground v.1.15,2013-04-15 05:59:00,
2013-04-15 02:04:00,54.9,51.7,30.00,SE,136,6.0,6.0,89,0.00,,,0.00,0,Wunderground v.1.15,2013-04-15 06:04:00,
2013-04-15 02:09:00,54.9,51.7,30.00,ESE,117,2.0,6.0,89,0.00,,,0.00,0,Wunderground v.1.15,2013-04-15 06:09:00,
2013-04-15 02:14:00,54.9,52.0,30.00,SE,138,0.0,4.0,90,0.00,,,0.00,0,Wunderground v.1.15,2013-04-15 06:14:00,
2013-04-15 02:19:00,54.8,51.9,29.99,SE,136,2.0,5.0,90,0.00,,,0.00,0,Wunderground v.1.15,2013-04-15 06:19:00,
2013-04-15 02:24:00,54.8,51.9,29.99,ESE,113,1.0,4.0,90,0.00,,,0.00,0,Wunderground v.1.15,2013-04-15 06:24:00,
2013-04-15 02:29:00,54.8,51.9,29.99,ESE,107,1.0,5.0,90,0.00,,,0.00,0,Wunderground v.1.15,2013-04-15 06:29:00,
2013-04-15 02:34:00,54.9,51.7,29.99,ESE,115,0.0,6.0,89,0.00,,,0.00,0,Wunderground v.1.15,2013-04-15 06:34:00,
2013-04-15 02:39:00,54.9,51.7,29.98,East,101,0.0,6.0,89,0.00,,,0.00,0,Wunderground v.1.15,2013-04-15 06:39:00,
2013-04-15 02:44:00,54.9,51.7,29.98,ESE,102,0.0,1.0,89,0.00,,,0.00,0,Wunderground v.1.15,2013-04-15 06:44:00,
2013-04-15 02:49:00,55.0,51.8,29.98,East,93,0.0,4.0,89,0.00,,,0.00,0,Wunderground v.1.15,2013-04-15 06:49:00,
2013-04-15 02:54:00,55.0,51.8,29.98,East,87,0.0,1.0,89,0.00,,,0.00,0,Wunderground v.1.15,2013-04-15 06:54:00,
2013-04-15 02:59:00,55.0,51.8,29.97,East,101,1.0,1.0,89,0.00,,,0.00,0,Wunderground v.1.15,2013-04-15 06:59:00,
2013-04-15 03:04:00,55.0,51.8,29.97,East,84,0.0,4.0,89,0.00,,,0.00,0,Wunderground v.1.15,2013-04-15 07:04:00,
2013-04-15 03:42:00,54.8,51.9,29.98,ESE,104,0.0,0.0,90,0.00,,,0.00,0,Wunderground v.1.15,2013-04-15 07:42:00,
2013-04-15 03:48:00,54.8,51.9,29.98,ESE,104,0.0,0.0,90,0.00,,,0.00,0,Wunderground v.1.15,2013-04-15 07:48:00,
2013-04-15 03:50:00,54.8,51.9,29.97,ESE,104,0.0,0.0,90,0.00,,,0.00,0,Wunderground v.1.15,2013-04-15 07:50:00,
2013-04-15 03:51:00,54.8,51.9,29.98,ESE,104,0.0,0.0,90,0.00,,,0.00,0,Wunderground v.1.15,2013-04-15 07:51:00,
2013-04-15 03:56:00,54.8,51.9,29.98,ESE,104,0.0,0.0,90,0.00,,,0.00,0,Wunderground v.1.15,2013-04-15 07:56:00,
2013-04-15 04:01:00,54.6,52.0,29.98,ESE,104,0.0,0.0,91,0.00,,,0.00,0,Wunderground v.1.15,2013-04-15 08:01:00,
2013-04-15 04:06:00,54.5,51.9,29.98,ESE,104,0.0,1.0,91,0.00,,,0.00,0,Wunderground v.1.15,2013-04-15 08:06:00,
2013-04-15 04:11:00,54.3,51.7,29.98,ESE,104,0.0,0.0,91,0.00,,,0.00,0,Wunderground v.1.15,2013-04-15 08:11:00,
2013-04-15 04:16:00,54.2,51.6,29.97,ESE,104,0.0,1.0,91,0.00,,,0.00,0,Wunderground v.1.15,2013-04-15 08:16:00,
2013-04-15 04:22:00,54.1,51.8,29.97,ESE,104,0.0,0.0,92,0.00,,,0.00,0,Wunderground v.1.15,2013-04-15 08:22:00,
2013-04-15 04:27:00,54.1,51.8,29.98,ESE,104,0.0,0.0,92,0.00,,,0.00,0,Wunderground v.1.15,2013-04-15 08:27:00,
2013-04-15 04:32:00,54.0,51.7,29.98,ESE,104,0.0,0.0,92,0.00,,,0.00,0,Wunderground v.1.15,2013-04-15 08:32:00,
2013-04-15 04:35:00,54.0,51.7,29.98,ESE,104,0.0,0.0,92,0.00,,,0.00,0,Wunderground v.1.15,2013-04-15 08:35:00,
2013-04-15 04:40:00,54.0,51.7,29.98,ESE,104,0.0,0.0,92,0.00,,,0.00,0,Wunderground v.1.15,2013-04-15 08:40:00,
2013-04-15 04:45:00,54.0,51.7,29.99,ESE,104,0.0,0.0,92,0.00,,,0.00,0,Wunderground v.1.15,2013-04-15 08:45:00,
2013-04-15 04:50:00,54.0,51.7,29.99,ESE,104,0.0,0.0,92,0.00,,,0.00,0,Wunderground v.1.15,2013-04-15 08:50:00,
2013-04-15 04:55:00,54.0,52.0,29.99,ESE,104,0.0,0.0,93,0.00,,,0.00,0,Wunderground v.1.15,2013-04-15 08:55:00,
2013-04-15 05:00:00,54.0,52.0,29.99,ESE,104,0.0,0.0,93,0.00,,,0.00,0,Wunderground v.1.15,2013-04-15 09:00:00,
2013-04-15 05:05:00,53.9,51.9,29.99,ESE,104,0.0,0.0,93,0.00,,,0.00,0,Wunderground v.1.15,2013-04-15 09:05:00,
2013-04-15 05:10:00,53.9,51.9,29.99,ESE,104,0.0,0.0,93,0.00,,,0.00,0,Wunderground v.1.15,2013-04-15 09:10:00,
2013-04-15 05:15:00,53.9,51.9,29.99,ESE,104,0.0,0.0,93,0.00,,,0.00,0,Wunderground v.1.15,2013-04-15 09:15:00,
2013-04-15 05:21:00,53.8,51.8,29.99,ESE,104,0.0,0.0,93,0.00,,,0.00,0,Wunderground v.1.15,2013-04-15 09:21:00,
2013-04-15 05:27:00,53.8,51.8,29.99,ESE,104,0.0,0.0,93,0.00,,,0.00,0,Wunderground v.1.15,2013-04-15 09:27:00,
2013-04-15 05:32:00,53.8,51.8,29.99,ESE,104,0.0,0.0,93,0.00,,,0.00,0,Wunderground v.1.15,2013-04-15 09:32:00,
2013-04-15 05:37:00,53.8,51.8,29.99,ESE,104,0.0,0.0,93,0.00,,,0.00,0,Wunderground v.1.15,2013-04-15 09:37:00,
2013-04-15 05:42:00,53.7,51.7,29.99,ESE,104,0.0,0.0,93,0.00,,,0.00,0,Wunderground v.1.15,2013-04-15 09:42:00,
2013-04-15 05:47:00,53.7,51.7,30.00,ESE,104,0.0,0.0,93,0.00,,,0.00,0,Wunderground v.1.15,2013-04-15 09:47:00,
2013-04-15 05:52:00,53.7,51.7,30.00,ESE,104,0.0,0.0,93,0.00,,,0.00,0,Wunderground v.1.15,2013-04-15 09:52:00,
2013-04-15 05:57:00,53.7,52.0,30.00,ESE,104,0.0,0.0,94,0.00,,,0.00,0,Wunderground v.1.15,2013-04-15 09:57:00,
2013-04-15 06:02:00,53.6,51.9,30.00,ESE,104,0.0,0.0,94,0.00,,,0.00,0,Wunderground v.1.15,2013-04-15 10:02:00,
2013-04-15 06:07:00,53.6,51.9,30.00,ESE,104,0.0,0.0,94,0.00,,,0.00,0,Wunderground v.1.15,2013-04-15 10:07:00,
2013-04-15 06:13:00,53.5,51.8,30.00,ESE,104,0.0,0.0,94,0.00,,,0.00,0,Wunderground v.1.15,2013-04-15 10:13:00,
2013-04-15 06:18:00,53.5,51.8,30.01,ESE,104,0.0,0.0,94,0.00,,,0.00,0,Wunderground v.1.15,2013-04-15 10:18:00,
2013-04-15 06:23:00,53.5,51.8,30.01,ESE,104,0.0,0.0,94,0.00,,,0.00,0,Wunderground v.1.15,2013-04-15 10:23:00,
2013-04-15 06:28:00,53.4,51.7,30.01,ESE,104,0.0,0.0,94,0.00,,,0.00,0,Wunderground v.1.15,2013-04-15 10:28:00,
2013-04-15 06:33:00,53.4,51.7,30.01,ESE,104,0.0,0.0,94,0.00,,,0.00,0,Wunderground v.1.15,2013-04-15 10:33:00,
2013-04-15 06:38:00,53.4,51.7,30.01,ESE,104,0.0,0.0,94,0.00,,,0.00,0,Wunderground v.1.15,2013-04-15 10:38:00,
2013-04-15 06:43:00,53.4,51.7,30.01,ESE,104,0.0,0.0,94,0.00,,,0.00,0,Wunderground v.1.15,2013-04-15 10:43:00,
2013-04-15 06:48:00,53.4,51.7,30.01,ESE,104,0.0,1.0,94,0.00,,,0.00,0,Wunderground v.1.15,2013-04-15 10:48:00,
2013-04-15 06:53:00,53.4,51.7,30.01,ESE,104,1.0,1.0,94,0.00,,,0.00,0,Wunderground v.1.15,2013-04-15 10:53:00,
2013-04-15 06:58:00,53.4,51.7,30.01,ESE,104,0.0,1.0,94,0.00,,,0.00,0,Wunderground v.1.15,2013-04-15 10:58:00,
2013-04-15 07:03:00,53.4,51.7,30.02,ESE,104,0.0,0.0,94,0.00,,,0.00,0,Wunderground v.1.15,2013-04-15 11:03:00,
2013-04-15 07:08:00,53.5,51.8,30.02,ESE,104,0.0,0.0,94,0.00,,,0.00,5,Wunderground v.1.15,2013-04-15 11:08:00,
2013-04-15 07:13:00,53.5,51.8,30.02,ESE,104,0.0,0.0,94,0.00,,,0.00,7,Wunderground v.1.15,2013-04-15 11:13:00,
2013-04-15 07:19:00,53.5,51.8,30.01,ESE,104,0.0,0.0,94,0.00,,,0.00,11,Wunderground v.1.15,2013-04-15 11:19:00,
2013-04-15 07:24:00,53.5,51.8,30.02,ESE,104,0.0,0.0,94,0.00,,,0.00,14,Wunderground v.1.15,2013-04-15 11:24:00,
2013-04-15 07:29:00,53.5,51.8,30.02,ESE,104,0.0,0.0,94,0.00,,,0.00,18,Wunderground v.1.15,2013-04-15 11:29:00,
2013-04-15 07:34:00,53.5,51.8,30.02,ESE,104,0.0,0.0,94,0.00,,,0.00,21,Wunderground v.1.15,2013-04-15 11:34:00,
2013-04-15 07:39:00,53.4,51.7,30.02,ESE,104,0.0,0.0,94,0.00,,,0.00,26,Wunderground v.1.15,2013-04-15 11:39:00,
2013-04-15 07:44:00,53.5,51.8,30.03,ESE,104,0.0,0.0,94,0.00,,,0.00,30,Wunderground v.1.15,2013-04-15 11:44:00,
2013-04-15 07:49:00,53.5,52.1,30.03,ESE,104,0.0,0.0,95,0.00,,,0.00,35,Wunderground v.1.15,2013-04-15 11:49:00,
2013-04-15 07:54:00,53.7,52.3,30.03,ESE,104,0.0,0.0,95,0.00,,,0.00,39,Wunderground v.1.15,2013-04-15 11:54:00,
2013-04-15 07:59:00,53.9,52.5,30.03,ESE,104,0.0,1.0,95,0.00,,,0.00,44,Wunderground v.1.15,2013-04-15 11:59:00,
2013-04-15 08:04:00,54.0,52.6,30.04,ESE,104,0.0,0.0,95,0.00,,,0.00,46,Wunderground v.1.15,2013-04-15 12:04:00,
2013-04-15 08:09:00,54.1,52.7,30.05,ESE,104,0.0,0.0,95,0.00,,,0.00,44,Wunderground v.1.15,2013-04-15 12:09:00,
2013-04-15 08:14:00,54.1,52.7,30.05,ESE,104,0.0,0.0,95,0.00,,,0.00,49,Wunderground v.1.15,2013-04-15 12:14:00,
2013-04-15 08:19:00,54.2,52.8,30.05,ESE,104,0.0,0.0,95,0.00,,,0.00,65,Wunderground v.1.15,2013-04-15 12:19:00,
2013-04-15 08:24:00,54.2,52.8,30.05,ESE,104,0.0,0.0,95,0.00,,,0.00,69,Wunderground v.1.15,2013-04-15 12:24:00,
2013-04-15 08:29:00,54.3,52.9,30.06,ESE,104,0.0,0.0,95,0.00,,,0.00,76,Wunderground v.1.15,2013-04-15 12:29:00,
2013-04-15 08:35:00,54.5,53.1,30.06,ESE,104,0.0,0.0,95,0.00,,,0.00,84,Wunderground v.1.15,2013-04-15 12:35:00,
2013-04-15 08:40:00,54.6,53.2,30.06,ESE,104,0.0,0.0,95,0.00,,,0.00,98,Wunderground v.1.15,2013-04-15 12:40:00,
2013-04-15 08:45:00,54.7,53.3,30.06,ESE,104,0.0,0.0,95,0.00,,,0.00,114,Wunderground v.1.15,2013-04-15 12:45:00,
2013-04-15 08:50:00,54.9,53.5,30.06,ESE,104,0.0,0.0,95,0.00,,,0.00,116,Wunderground v.1.15,2013-04-15 12:50:00,
2013-04-15 08:55:00,55.2,53.8,30.06,ESE,104,0.0,1.0,95,0.00,,,0.00,130,Wunderground v.1.15,2013-04-15 12:55:00,
2013-04-15 09:00:00,55.4,53.7,30.06,ESE,104,0.0,0.0,94,0.00,,,0.00,139,Wunderground v.1.15,2013-04-15 13:00:00,
2013-04-15 09:06:00,55.7,54.0,30.06,ESE,104,0.0,0.0,94,0.00,,,0.00,149,Wunderground v.1.15,2013-04-15 13:06:00,
2013-04-15 09:11:00,56.0,54.3,30.06,ESE,104,0.0,0.0,94,0.00,,,0.00,163,Wunderground v.1.15,2013-04-15 13:11:00,
2013-04-15 09:17:00,56.3,54.3,30.06,ESE,103,0.0,1.0,93,0.00,,,0.00,185,Wunderground v.1.15,2013-04-15 13:17:00,
2013-04-15 09:22:00,56.6,54.6,30.06,ESE,103,0.0,0.0,93,0.00,,,0.00,186,Wunderground v.1.15,2013-04-15 13:22:00,
2013-04-15 09:27:00,56.9,54.6,30.06,East,98,0.0,1.0,92,0.00,,,0.00,209,Wunderground v.1.15,2013-04-15 13:27:00,
2013-04-15 09:32:00,57.5,55.2,30.05,ENE,73,0.0,2.0,92,0.00,,,0.00,230,Wunderground v.1.15,2013-04-15 13:32:00,
2013-04-15 09:37:00,58.0,55.4,30.06,ESE,106,4.0,5.0,91,0.00,,,0.00,255,Wunderground v.1.15,2013-04-15 13:37:00,
2013-04-15 09:42:00,58.8,56.2,30.06,East,85,0.0,5.0,91,0.00,,,0.00,482,Wunderground v.1.15,2013-04-15 13:42:00,
2013-04-15 09:47:00,59.5,56.6,30.05,SSE,148,0.0,5.0,90,0.00,,,0.00,504,Wunderground v.1.15,2013-04-15 13:47:00,
2013-04-15 09:52:00,60.3,56.4,30.06,ESE,107,0.0,5.0,87,0.00,,,0.00,492,Wunderground v.1.15,2013-04-15 13:52:00,
2013-04-15 09:57:00,60.8,56.3,30.06,SW,219,1.0,7.0,85,0.00,,,0.00,350,Wunderground v.1.15,2013-04-15 13:57:00,
2013-04-15 10:02:00,61.1,55.9,30.06,SE,131,7.0,8.0,83,0.00,,,0.00,315,Wunderground v.1.15,2013-04-15 14:02:00,
2013-04-15 10:07:00,61.2,56.0,30.06,East,101,4.0,8.0,83,0.00,,,0.00,327,Wunderground v.1.15,2013-04-15 14:07:00,
2013-04-15 10:12:00,61.3,55.8,30.06,SE,130,0.0,4.0,82,0.00,,,0.00,366,Wunderground v.1.15,2013-04-15 14:12:00,
2013-04-15 10:17:00,61.6,56.0,30.06,SE,136,4.0,5.0,82,0.00,,,0.00,432,Wunderground v.1.15,2013-04-15 14:17:00,
2013-04-15 10:22:00,62.0,56.1,30.06,ESE,109,2.0,5.0,81,0.00,,,0.00,415,Wunderground v.1.15,2013-04-15 14:22:00,
2013-04-15 10:28:00,62.7,56.4,30.06,ESE,109,0.0,5.0,80,0.00,,,0.00,828,Wunderground v.1.15,2013-04-15 14:28:00,
2013-04-15 10:33:00,63.3,55.6,30.07,SE,144,6.0,7.0,76,0.00,,,0.00,267,Wunderground v.1.15,2013-04-15 14:33:00,
2013-04-15 10:38:00,63.4,55.0,30.07,SE,146,0.0,7.0,74,0.00,,,0.00,239,Wunderground v.1.15,2013-04-15 14:38:00,
2013-04-15 10:43:00,63.5,54.7,30.07,SE,136,1.0,3.0,73,0.00,,,0.00,227,Wunderground v.1.15,2013-04-15 14:43:00,
2013-04-15 10:48:00,63.2,54.4,30.07,ESE,111,4.0,7.0,73,0.00,,,0.00,260,Wunderground v.1.15,2013-04-15 14:48:00,
2013-04-15 10:53:00,63.1,54.7,30.07,SE,124,5.0,6.0,74,0.00,,,0.00,348,Wunderground v.1.15,2013-04-15 14:53:00,
2013-04-15 10:58:00,63.2,55.1,30.08,South,172,2.0,6.0,75,0.00,,,0.00,369,Wunderground v.1.15,2013-04-15 14:58:00,
2013-04-15 11:03:00,63.4,55.0,30.07,East,97,5.0,7.0,74,0.00,,,0.00,346,Wunderground v.1.15,2013-04-15 15:03:00,
2013-04-15 11:08:00,63.4,55.0,30.07,ESE,116,0.0,7.0,74,0.00,,,0.00,455,Wunderground v.1.15,2013-04-15 15:08:00,
2013-04-15 11:13:00,64.1,55.6,30.07,ESE,102,0.0,6.0,74,0.00,,,0.00,770,Wunderground v.1.15,2013-04-15 15:13:00,
2013-04-15 11:18:00,64.8,55.6,30.07,SSE,166,4.0,6.0,72,0.00,,,0.00,323,Wunderground v.1.15,2013-04-15 15:18:00,
2013-04-15 11:23:00,64.9,55.3,30.07,East,82,0.0,6.0,71,0.00,,,0.00,334,Wunderground v.1.15,2013-04-15 15:23:00,
2013-04-15 11:28:00,64.9,54.9,30.07,ENE,59,0.0,6.0,70,0.00,,,0.00,362,Wunderground v.1.15,2013-04-15 15:28:00,
2013-04-15 11:33:00,64.8,55.2,30.07,SE,134,4.0,6.0,71,0.00,,,0.00,374,Wunderground v.1.15,2013-04-15 15:33:00,
2013-04-15 11:38:00,64.8,54.8,30.07,East,80,1.0,9.0,70,0.00,,,0.00,374,Wunderground v.1.15,2013-04-15 15:38:00,
2013-04-15 11:43:00,64.9,54.5,30.07,SE,142,0.0,4.0,69,0.00,,,0.00,399,Wunderground v.1.15,2013-04-15 15:43:00,
2013-04-15 11:48:00,64.9,54.9,30.07,SE,142,10.0,10.0,70,0.00,,,0.00,459,Wunderground v.1.15,2013-04-15 15:48:00,
2013-04-15 11:53:00,65.0,55.4,30.07,ESE,120,8.0,8.0,71,0.00,,,0.00,417,Wunderground v.1.15,2013-04-15 15:53:00,
2013-04-15 11:58:00,65.2,55.6,30.07,SW,224,4.0,8.0,71,0.00,,,0.00,1136,Wunderground v.1.15,2013-04-15 15:58:00,
2013-04-15 12:04:00,66.0,56.3,30.07,South,188,5.0,9.0,71,0.00,,,0.00,1097,Wunderground v.1.15,2013-04-15 16:04:00,
2013-04-15 12:09:00,67.0,56.1,30.07,WNW,294,1.0,9.0,68,0.00,,,0.00,991,Wunderground v.1.15,2013-04-15 16:09:00,
2013-04-15 12:14:00,67.3,55.5,30.07,West,259,0.0,8.0,66,0.00,,,0.00,1014,Wunderground v.1.15,2013-04-15 16:14:00,
2013-04-15 12:19:00,67.6,55.8,30.07,NNW,340,2.0,8.0,66,0.00,,,0.00,348,Wunderground v.1.15,2013-04-15 16:19:00,
2013-04-15 12:24:00,67.7,55.9,30.07,NE,41,0.0,5.0,66,0.00,,,0.00,1113,Wunderground v.1.15,2013-04-15 16:24:00,
2013-04-15 12:30:00,68.0,55.4,30.07,SSE,161,1.0,2.0,64,0.00,,,0.00,1092,Wunderground v.1.15,2013-04-15 16:30:00,
2013-04-15 12:35:00,68.4,55.3,30.07,SW,224,0.0,3.0,63,0.00,,,0.00,998,Wunderground v.1.15,2013-04-15 16:35:00,
2013-04-15 12:40:00,68.5,55.4,30.06,East,82,1.0,1.0,63,0.00,,,0.00,353,Wunderground v.1.15,2013-04-15 16:40:00,
2013-04-15 12:45:00,68.6,55.9,30.06,ENE,69,0.0,3.0,64,0.00,,,0.00,965,Wunderground v.1.15,2013-04-15 16:45:00,
2013-04-15 12:50:00,69.1,55.5,30.06,SE,143,0.0,1.0,62,0.00,,,0.00,1035,Wunderground v.1.15,2013-04-15 16:50:00,
2013-04-15 12:55:00,69.9,57.2,30.06,South,175,1.0,6.0,64,0.00,,,0.00,998,Wunderground v.1.15,2013-04-15 16:55:00,
2013-04-15 13:00:00,70.1,56.9,30.07,NNW,333,2.0,3.0,63,0.00,,,0.00,654,Wunderground v.1.15,2013-04-15 17:00:00,
2013-04-15 13:05:00,70.1,56.5,30.06,NW,325,1.0,5.0,62,0.00,,,0.00,937,Wunderground v.1.15,2013-04-15 17:05:00,
2013-04-15 13:10:00,70.1,56.5,30.06,WNW,287,4.0,5.0,62,0.00,,,0.00,951,Wunderground v.1.15,2013-04-15 17:10:00,
2013-04-15 13:15:00,70.0,57.3,30.05,NW,324,3.0,7.0,64,0.00,,,0.00,979,Wunderground v.1.15,2013-04-15 17:15:00,
2013-04-15 13:20:00,70.1,55.6,30.05,NNW,336,3.0,6.0,60,0.00,,,0.00,1039,Wunderground v.1.15,2013-04-15 17:20:00,
2013-04-15 13:21:00,70.1,55.6,30.05,NNW,336,3.0,6.0,60,0.00,,,0.00,1009,Wunderground v.1.15,2013-04-15 17:21:00,
2013-04-15 13:22:00,70.1,56.0,30.05,NNW,336,0.0,6.0,61,0.00,,,0.00,979,Wunderground v.1.15,2013-04-15 17:22:00,
2013-04-15 13:25:00,70.2,56.1,30.05,NNW,346,0.0,6.0,61,0.00,,,0.00,926,Wunderground v.1.15,2013-04-15 17:25:00,
2013-04-15 13:30:00,70.7,56.1,30.05,ENE,65,0.0,2.0,60,0.00,,,0.00,919,Wunderground v.1.15,2013-04-15 17:30:00,
2013-04-15 13:35:00,70.8,57.6,30.04,North,350,0.0,7.0,63,0.00,,,0.00,919,Wunderground v.1.15,2013-04-15 17:35:00,
2013-04-15 13:41:00,71.4,57.7,30.04,NE,55,2.0,4.0,62,0.00,,,0.00,921,Wunderground v.1.15,2013-04-15 17:41:00,
2013-04-15 13:46:00,71.5,55.5,30.04,ENE,57,2.0,6.0,57,0.00,,,0.00,921,Wunderground v.1.15,2013-04-15 17:46:00,
2013-04-15 13:51:00,71.6,57.0,30.04,ESE,114,0.0,2.0,60,0.00,,,0.00,921,Wunderground v.1.15,2013-04-15 17:51:00,
2013-04-15 13:56:00,72.2,58.0,30.04,SSW,192,2.0,4.0,61,0.00,,,0.00,919,Wunderground v.1.15,2013-04-15 17:56:00,
2013-04-15 14:01:00,73.1,57.0,30.04,ENE,73,0.0,3.0,57,0.00,,,0.00,914,Wunderground v.1.15,2013-04-15 18:01:00,
2013-04-15 14:05:00,73.2,57.1,30.04,ESE,109,1.0,6.0,57,0.00,,,0.00,912,Wunderground v.1.15,2013-04-15 18:05:00,
2013-04-15 14:10:00,73.5,55.8,30.04,East,97,0.0,1.0,54,0.00,,,0.00,914,Wunderground v.1.15,2013-04-15 18:10:00,
2013-04-15 14:16:00,73.9,56.2,30.04,SE,130,0.0,2.0,54,0.00,,,0.00,916,Wunderground v.1.15,2013-04-15 18:16:00,
2013-04-15 14:21:00,74.7,58.0,30.04,East,88,0.0,0.0,56,0.00,,,0.00,911,Wunderground v.1.15,2013-04-15 18:21:00,
2013-04-15 14:26:00,75.0,57.2,30.04,WNW,288,5.0,6.0,54,0.00,,,0.00,911,Wunderground v.1.15,2013-04-15 18:26:00,
2013-04-15 14:29:00,74.8,57.5,30.04,NW,310,3.0,7.0,55,0.00,,,0.00,905,Wunderground v.1.15,2013-04-15 18:29:00,
2013-04-15 14:34:00,74.4,56.7,30.04,NW,323,1.0,7.0,54,0.00,,,0.00,896,Wunderground v.1.15,2013-04-15 18:34:00,
2013-04-15 14:39:00,74.5,57.3,30.04,East,84,0.0,7.0,55,0.00,,,0.00,902,Wunderground v.1.15,2013-04-15 18:39:00,
2013-04-15 14:44:00,74.7,56.9,30.03,ENE,76,1.0,4.0,54,0.00,,,0.00,886,Wunderground v.1.15,2013-04-15 18:44:00,
2013-04-15 14:49:00,74.6,56.3,30.03,South,178,5.0,12.0,53,0.00,,,0.00,893,Wunderground v.1.15,2013-04-15 18:49:00,
2013-04-15 14:54:00,74.7,56.4,30.03,ENE,59,0.0,4.0,53,0.00,,,0.00,879,Wunderground v.1.15,2013-04-15 18:54:00,
2013-04-15 14:59:00,74.7,56.9,30.03,NNW,340,0.0,4.0,54,0.00,,,0.00,865,Wunderground v.1.15,2013-04-15 18:59:00,
2013-04-15 15:04:00,75.2,58.4,30.03,ENE,66,2.0,4.0,56,0.00,,,0.00,863,Wunderground v.1.15,2013-04-15 19:04:00,
2013-04-15 15:09:00,75.5,58.2,30.03,ESE,107,6.0,7.0,55,0.00,,,0.00,860,Wunderground v.1.15,2013-04-15 19:09:00,
2013-04-15 15:14:00,75.5,57.7,30.03,East,82,0.0,4.0,54,0.00,,,0.00,844,Wunderground v.1.15,2013-04-15 19:14:00,
2013-04-15 15:19:00,76.0,57.1,30.02,ESE,115,0.0,4.0,52,0.00,,,0.00,835,Wunderground v.1.15,2013-04-15 19:19:00,
2013-04-15 15:24:00,76.4,58.0,30.02,NNW,340,0.0,4.0,53,0.00,,,0.00,826,Wunderground v.1.15,2013-04-15 19:24:00,
2013-04-15 15:29:00,76.6,57.1,30.02,NNE,33,0.0,6.0,51,0.00,,,0.00,812,Wunderground v.1.15,2013-04-15 19:29:00,
2013-04-15 15:35:00,76.9,57.4,30.02,SE,137,7.0,12.0,51,0.00,,,0.00,800,Wunderground v.1.15,2013-04-15 19:35:00,
2013-04-15 15:40:00,76.9,56.8,30.02,SE,124,6.0,6.0,50,0.00,,,0.00,789,Wunderground v.1.15,2013-04-15 19:40:00,
2013-04-15 15:45:00,77.1,57.0,30.02,SSW,207,1.0,8.0,50,0.00,,,0.00,780,Wunderground v.1.15,2013-04-15 19:45:00,
2013-04-15 15:50:00,77.5,57.4,30.02,South,176,1.0,3.0,50,0.00,,,0.00,770,Wunderground v.1.15,2013-04-15 19:50:00,
2013-04-15 15:56:00,77.8,56.5,30.01,WSW,248,5.0,6.0,48,0.00,,,0.00,752,Wunderground v.1.15,2013-04-15 19:56:00,
2013-04-15 15:57:00,77.8,56.0,30.01,West,281,1.0,6.0,47,0.00,,,0.00,751,Wunderground v.1.15,2013-04-15 19:57:00,
2013-04-15 15:58:00,77.8,57.1,30.01,WSW,255,3.0,6.0,49,0.00,,,0.00,751,Wunderground v.1.15,2013-04-15 19:58:00,
2013-04-15 15:59:00,77.8,57.7,30.02,WSW,252,0.0,6.0,50,0.00,,,0.00,749,Wunderground v.1.15,2013-04-15 19:59:00,
2013-04-15 16:02:00,78.0,57.9,30.01,ENE,67,4.0,4.0,50,0.00,,,0.00,737,Wunderground v.1.15,2013-04-15 20:02:00,
2013-04-15 16:08:00,78.0,56.7,30.01,SE,142,6.0,6.0,48,0.00,,,0.00,726,Wunderground v.1.15,2013-04-15 20:08:00,
2013-04-15 16:13:00,78.1,57.4,30.01,East,99,0.0,5.0,49,0.00,,,0.00,729,Wunderground v.1.15,2013-04-15 20:13:00,
2013-04-15 16:18:00,78.3,57.0,30.01,ENE,57,0.0,6.0,48,0.00,,,0.00,714,Wunderground v.1.15,2013-04-15 20:18:00,
2013-04-15 16:23:00,78.4,57.7,30.00,East,87,2.0,10.0,49,0.00,,,0.00,687,Wunderground v.1.15,2013-04-15 20:23:00,
2013-04-15 16:28:00,78.6,57.8,30.01,South,171,2.0,10.0,49,0.00,,,0.00,680,Wunderground v.1.15,2013-04-15 20:28:00,
2013-04-15 16:33:00,78.9,57.0,30.00,ESE,105,5.0,5.0,47,0.00,,,0.00,684,Wunderground v.1.15,2013-04-15 20:33:00,
2013-04-15 16:38:00,79.1,58.9,30.00,East,82,3.0,9.0,50,0.00,,,0.00,684,Wunderground v.1.15,2013-04-15 20:38:00,
2013-04-15 16:43:00,78.9,58.7,30.00,SE,146,5.0,8.0,50,0.00,,,0.00,698,Wunderground v.1.15,2013-04-15 20:43:00,
2013-04-15 16:48:00,78.6,57.3,30.00,ESE,109,12.0,12.0,48,0.00,,,0.00,278,Wunderground v.1.15,2013-04-15 20:48:00,
2013-04-15 16:53:00,77.6,58.0,30.00,SE,129,11.0,13.0,51,0.00,,,0.00,137,Wunderground v.1.15,2013-04-15 20:53:00,
2013-04-15 16:58:00,76.7,58.3,30.00,SE,134,8.0,13.0,53,0.00,,,0.00,153,Wunderground v.1.15,2013-04-15 20:58:00,
2013-04-15 17:03:00,76.4,58.5,30.00,SE,146,8.0,11.0,54,0.00,,,0.00,608,Wunderground v.1.15,2013-04-15 21:03:00,
2013-04-15 17:08:00,76.6,59.2,30.00,SE,134,0.0,11.0,55,0.00,,,0.00,515,Wunderground v.1.15,2013-04-15 21:08:00,
2013-04-15 17:13:00,76.8,59.4,30.00,SSE,160,1.0,15.0,55,0.00,,,0.00,578,Wunderground v.1.15,2013-04-15 21:13:00,
2013-04-15 17:18:00,76.8,58.4,30.00,SSE,162,10.0,15.0,53,0.00,,,0.00,469,Wunderground v.1.15,2013-04-15 21:18:00,
2013-04-15 17:23:00,76.5,59.1,30.00,SE,144,9.0,15.0,55,0.00,,,0.00,425,Wunderground v.1.15,2013-04-15 21:23:00,
2013-04-15 17:28:00,76.0,58.7,30.00,SE,130,5.0,15.0,55,0.00,,,0.00,93,Wunderground v.1.15,2013-04-15 21:28:00,
2013-04-15 17:33:00,75.9,59.1,30.00,ESE,118,8.0,15.0,56,0.00,,,0.00,489,Wunderground v.1.15,2013-04-15 21:33:00,
2013-04-15 17:38:00,75.9,58.6,30.00,ESE,119,5.0,15.0,55,0.00,,,0.00,471,Wunderground v.1.15,2013-04-15 21:38:00,
2013-04-15 17:43:00,75.8,58.5,30.01,SSE,162,6.0,12.0,55,0.00,,,0.00,455,Wunderground v.1.15,2013-04-15 21:43:00,
2013-04-15 17:48:00,75.8,58.5,30.01,SE,124,6.0,12.0,55,0.00,,,0.00,438,Wunderground v.1.15,2013-04-15 21:48:00,
2013-04-15 17:53:00,75.7,57.9,30.01,ESE,106,1.0,13.0,54,0.00,,,0.00,420,Wunderground v.1.15,2013-04-15 21:53:00,
2013-04-15 17:58:00,75.5,58.2,30.01,SE,128,6.0,13.0,55,0.00,,,0.00,74,Wunderground v.1.15,2013-04-15 21:58:00,
2013-04-15 18:03:00,75.2,57.4,30.01,ESE,122,5.0,15.0,54,0.00,,,0.00,378,Wunderground v.1.15,2013-04-15 22:03:00,
2013-04-15 18:08:00,75.2,57.9,30.02,SE,125,9.0,15.0,55,0.00,,,0.00,360,Wunderground v.1.15,2013-04-15 22:08:00,
2013-04-15 18:14:00,75.1,57.8,30.02,ESE,123,8.0,12.0,55,0.00,,,0.00,304,Wunderground v.1.15,2013-04-15 22:14:00,
2013-04-15 18:19:00,74.7,57.5,30.02,East,90,6.0,13.0,55,0.00,,,0.00,65,Wunderground v.1.15,2013-04-15 22:19:00,
2013-04-15 18:24:00,74.3,57.1,30.02,SE,126,2.0,9.0,55,0.00,,,0.00,67,Wunderground v.1.15,2013-04-15 22:24:00,
2013-04-15 18:29:00,74.2,58.0,30.03,ESE,114,9.0,11.0,57,0.00,,,0.00,281,Wunderground v.1.15,2013-04-15 22:29:00,
2013-04-15 18:34:00,74.2,57.0,30.03,SE,127,13.0,15.0,55,0.00,,,0.00,250,Wunderground v.1.15,2013-04-15 22:34:00,
2013-04-15 18:39:00,74.0,57.3,30.03,SE,127,6.0,15.0,56,0.00,,,0.00,77,Wunderground v.1.15,2013-04-15 22:39:00,
2013-04-15 18:44:00,73.8,57.6,30.03,SE,142,7.0,11.0,57,0.00,,,0.00,236,Wunderground v.1.15,2013-04-15 22:44:00,
2013-04-15 18:49:00,73.9,57.7,30.04,SE,145,2.0,11.0,57,0.00,,,0.00,218,Wunderground v.1.15,2013-04-15 22:49:00,
2013-04-15 18:54:00,73.9,56.7,30.04,SE,146,13.0,13.0,55,0.00,,,0.00,188,Wunderground v.1.15,2013-04-15 22:54:00,
2013-04-15 18:59:00,73.5,56.8,30.04,ESE,117,7.0,16.0,56,0.00,,,0.00,165,Wunderground v.1.15,2013-04-15 22:59:00,
2013-04-15 19:04:00,73.3,56.7,30.04,SE,126,0.0,9.0,56,0.00,,,0.00,141,Wunderground v.1.15,2013-04-15 23:04:00,
2013-04-15 19:09:00,73.1,56.5,30.04,SE,138,7.0,12.0,56,0.00,,,0.00,118,Wunderground v.1.15,2013-04-15 23:09:00,
2013-04-15 19:14:00,72.8,56.7,30.04,ESE,123,2.0,12.0,57,0.00,,,0.00,100,Wunderground v.1.15,2013-04-15 23:14:00,
2013-04-15 19:19:00,72.5,56.9,30.05,ESE,113,7.0,7.0,58,0.00,,,0.00,83,Wunderground v.1.15,2013-04-15 23:19:00,
2013-04-15 19:24:00,72.3,56.7,30.05,SE,145,7.0,12.0,58,0.00,,,0.00,69,Wunderground v.1.15,2013-04-15 23:24:00,
2013-04-15 19:29:00,72.1,56.5,30.05,East,87,5.0,5.0,58,0.00,,,0.00,56,Wunderground v.1.15,2013-04-15 23:29:00,
2013-04-15 19:34:00,71.7,56.6,30.05,SSE,163,2.0,8.0,59,0.00,,,0.00,44,Wunderground v.1.15,2013-04-15 23:34:00,
2013-04-15 19:39:00,71.5,56.4,30.06,SE,138,4.0,4.0,59,0.00,,,0.00,35,Wunderground v.1.15,2013-04-15 23:39:00,
2013-04-15 19:44:00,71.2,56.1,30.06,ESE,121,5.0,9.0,59,0.00,,,0.00,30,Wunderground v.1.15,2013-04-15 23:44:00,
2013-04-15 19:49:00,70.8,56.2,30.06,SSE,157,6.0,6.0,60,0.00,,,0.00,23,Wunderground v.1.15,2013-04-15 23:49:00,
2013-04-15 19:55:00,70.4,56.3,30.07,SE,131,5.0,10.0,61,0.00,,,0.00,18,Wunderground v.1.15,2013-04-15 23:55:00,
2013-04-15 20:00:00,70.0,55.9,30.07,East,93,6.0,6.0,61,0.00,,,0.00,12,Wunderground v.1.15,2013-04-16 00:00:00,
2013-04-15 20:05:00,69.5,55.9,30.07,SE,126,0.0,11.0,62,0.00,,,0.00,9,Wunderground v.1.15,2013-04-16 00:05:00,
2013-04-15 20:10:00,69.2,56.1,30.07,ESE,115,1.0,5.0,63,0.00,,,0.00,5,Wunderground v.1.15,2013-04-16 00:10:00,
2013-04-15 20:15:00,68.9,55.8,30.08,SE,145,7.0,8.0,63,0.00,,,0.00,0,Wunderground v.1.15,2013-04-16 00:15:00,
2013-04-15 20:20:00,68.6,55.9,30.08,South,171,4.0,4.0,64,0.00,,,0.00,0,Wunderground v.1.15,2013-04-16 00:20:00,
2013-04-15 20:25:00,68.3,56.1,30.08,SE,134,6.0,10.0,65,0.00,,,0.00,0,Wunderground v.1.15,2013-04-16 00:25:00,
2013-04-15 20:30:00,68.1,55.9,30.09,SE,132,6.0,6.0,65,0.00,,,0.00,0,Wunderground v.1.15,2013-04-16 00:30:00,
2013-04-15 20:35:00,67.8,55.6,30.09,SE,132,8.0,10.0,65,0.00,,,0.00,0,Wunderground v.1.15,2013-04-16 00:35:00,
2013-04-15 20:40:00,67.6,55.8,30.09,ESE,107,0.0,5.0,66,0.00,,,0.00,0,Wunderground v.1.15,2013-04-16 00:40:00,
2013-04-15 20:45:00,67.4,56.1,30.09,East,96,0.0,6.0,67,0.00,,,0.00,0,Wunderground v.1.15,2013-04-16 00:45:00,
2013-04-15 20:50:00,67.1,55.8,30.09,ESE,113,1.0,4.0,67,0.00,,,0.00,0,Wunderground v.1.15,2013-04-16 00:50:00,
2013-04-15 20:55:00,66.8,55.9,30.09,SE,132,7.0,7.0,68,0.00,,,0.00,0,Wunderground v.1.15,2013-04-16 00:55:00,
2013-04-15 21:00:00,66.6,55.7,30.09,SE,146,5.0,5.0,68,0.00,,,0.00,0,Wunderground v.1.15,2013-04-16 01:00:00,
2013-04-15 21:05:00,66.4,55.9,30.10,SSE,157,2.0,6.0,69,0.00,,,0.00,0,Wunderground v.1.15,2013-04-16 01:05:00,
2013-04-15 21:10:00,66.2,55.7,30.10,ESE,108,0.0,2.0,69,0.00,,,0.00,0,Wunderground v.1.15,2013-04-16 01:10:00,
2013-04-15 21:15:00,66.1,55.6,30.10,East,99,0.0,5.0,69,0.00,,,0.00,0,Wunderground v.1.15,2013-04-16 01:15:00,
2013-04-15 21:20:00,65.9,55.8,30.11,East,99,0.0,2.0,70,0.00,,,0.00,0,Wunderground v.1.15,2013-04-16 01:20:00,
2013-04-15 21:25:00,65.6,55.5,30.11,ENE,68,3.0,4.0,70,0.00,,,0.00,0,Wunderground v.1.15,2013-04-16 01:25:00,
2013-04-15 21:30:00,65.4,55.7,30.11,East,80,0.0,1.0,71,0.00,,,0.00,0,Wunderground v.1.15,2013-04-16 01:30:00,
2013-04-15 21:35:00,65.2,55.6,30.12,ESE,103,6.0,6.0,71,0.00,,,0.00,0,Wunderground v.1.15,2013-04-16 01:35:00,
2013-04-15 21:40:00,65.0,55.4,30.12,East,96,2.0,9.0,71,0.00,,,0.00,0,Wunderground v.1.15,2013-04-16 01:40:00,
2013-04-15 21:45:00,65.0,55.4,30.12,SE,141,6.0,9.0,71,0.00,,,0.00,0,Wunderground v.1.15,2013-04-16 01:45:00,
2013-04-15 21:50:00,64.9,55.7,30.13,SSE,148,6.0,9.0,72,0.00,,,0.00,0,Wunderground v.1.15,2013-04-16 01:50:00,
2013-04-15 21:55:00,64.9,55.7,30.13,SE,138,4.0,12.0,72,0.00,,,0.00,0,Wunderground v.1.15,2013-04-16 01:55:00,
2013-04-15 22:00:00,64.9,55.7,30.13,ESE,104,5.0,9.0,72,0.00,,,0.00,0,Wunderground v.1.15,2013-04-16 02:00:00,
2013-04-15 22:05:00,64.8,55.9,30.13,ESE,105,1.0,9.0,73,0.00,,,0.00,0,Wunderground v.1.15,2013-04-16 02:05:00,
2013-04-15 22:10:00,64.7,55.8,30.13,ESE,123,5.0,8.0,73,0.00,,,0.00,0,Wunderground v.1.15,2013-04-16 02:10:00,
2013-04-15 22:15:00,64.6,55.7,30.14,ESE,107,1.0,9.0,73,0.00,,,0.00,0,Wunderground v.1.15,2013-04-16 02:15:00,
2013-04-15 22:20:00,64.5,56.0,30.14,SE,136,4.0,6.0,74,0.00,,,0.00,0,Wunderground v.1.15,2013-04-16 02:20:00,
2013-04-15 22:25:00,64.4,55.9,30.14,East,79,1.0,11.0,74,0.00,,,0.00,0,Wunderground v.1.15,2013-04-16 02:25:00,
2013-04-15 22:31:00,64.3,56.2,30.14,ENE,69,3.0,7.0,75,0.00,,,0.00,0,Wunderground v.1.15,2013-04-16 02:31:00,
2013-04-15 22:36:00,64.2,56.1,30.14,ESE,104,7.0,15.0,75,0.00,,,0.00,0,Wunderground v.1.15,2013-04-16 02:36:00,
2013-04-15 22:41:00,64.1,56.4,30.14,SE,132,1.0,7.0,76,0.00,,,0.00,0,Wunderground v.1.15,2013-04-16 02:41:00,
2013-04-15 22:46:00,64.0,56.6,30.15,SE,139,5.0,8.0,77,0.00,,,0.00,0,Wunderground v.1.15,2013-04-16 02:46:00,
2013-04-15 22:51:00,63.9,56.5,30.15,SSE,155,2.0,8.0,77,0.00,,,0.00,0,Wunderground v.1.15,2013-04-16 02:51:00,
2013-04-15 22:56:00,63.8,56.4,30.15,East,81,4.0,8.0,77,0.00,,,0.00,0,Wunderground v.1.15,2013-04-16 02:56:00,
2013-04-15 23:01:00,63.6,56.3,30.15,East,88,1.0,5.0,77,0.00,,,0.00,0,Wunderground v.1.15,2013-04-16 03:01:00,
2013-04-15 23:06:00,63.5,56.5,30.15,ESE,114,4.0,7.0,78,0.00,,,0.00,0,Wunderground v.1.15,2013-04-16 03:06:00,
2013-04-15 23:11:00,63.4,56.4,30.15,East,79,1.0,6.0,78,0.00,,,0.00,0,Wunderground v.1.15,2013-04-16 03:11:00,
2013-04-15 23:16:00,63.3,56.3,30.15,ESE,111,0.0,6.0,78,0.00,,,0.00,0,Wunderground v.1.15,2013-04-16 03:16:00,
2013-04-15 23:21:00,63.2,56.2,30.16,ESE,107,1.0,5.0,78,0.00,,,0.00,0,Wunderground v.1.15,2013-04-16 03:21:00,
2013-04-15 23:26:00,63.0,56.4,30.16,East,98,1.0,6.0,79,0.00,,,0.00,0,Wunderground v.1.15,2013-04-16 03:26:00,
2013-04-15 23:31:00,62.9,56.3,30.16,East,92,0.0,5.0,79,0.00,,,0.00,0,Wunderground v.1.15,2013-04-16 03:31:00,
2013-04-15 23:37:00,62.8,56.5,30.16,ENE,78,2.0,6.0,80,0.00,,,0.00,0,Wunderground v.1.15,2013-04-16 03:37:00,
2013-04-15 23:42:00,62.7,56.4,30.16,SE,124,6.0,6.0,80,0.00,,,0.00,0,Wunderground v.1.15,2013-04-16 03:42:00,
2013-04-15 23:47:00,62.6,56.3,30.16,ESE,119,0.0,6.0,80,0.00,,,0.00,0,Wunderground v.1.15,2013-04-16 03:47:00,
2013-04-15 23:52:00,62.6,56.7,30.16,East,90,2.0,6.0,81,0.00,,,0.00,0,Wunderground v.1.15,2013-04-16 03:52:00,
2013-04-15 23:57:00,62.5,56.6,30.16,ESE,121,0.0,7.0,81,0.00,,,0.00,0,Wunderground v.1.15,2013-04-16 03:57:00,